Date String (YYYY-MM-DD hh:mm:ss) UTC,Instrument flags,absolute air pressure of the measurement (hPa),sample flow rate (lpm),inlet stack bypass flow (lpm),air temperature of the measurement (°C),ambient temperature measured by the external sensor (°C),aerosol sample conditioner tube jacket temperature (°C),OPC LED temperature (°C),internal box temperature (°C),relative humidity of the measurement (%),span deviation,mass concentration of particles derived from Lorenz-Mie calculation of OPC scattering (μg/m³),mass concentration of particles derived from Lorenz-Mie calculation of OPC scattering (μg/m³),mass concentration of particles derived from Lorenz-Mie calculation of OPC scattering (μg/m³)
DateTimeUTC,F1_M11,P_M11,Q1_M11,Q2_M11,T1_M11,T2_M11,T3_M11,T4_M11,T5_M11,U1_M11,ZSPAN_M11,X0_M11,X2_M11,X1_M11
2023-09-07 16:00:00,SystemResetWarning,0832.7,5.00,000.00,028.3,026.6,000.0,036.5,029.9,14.8,0000.0,0007.81,0001.89,0001.08
2023-09-07 16:01:00,SystemResetWarning,0832.7,5.00,000.00,028.2,025.2,000.0,036.5,029.4,15.7,0000.0,0008.18,0001.89,0001.07
2023-09-07 16:02:00,SystemResetWarning,0832.7,5.00,000.00,028.1,024.8,000.0,036.4,029.4,16.1,0000.0,0008.23,0001.92,0001.07
2023-09-07 16:03:00,SystemResetWarning,0832.7,5.01,000.00,028.1,025.1,000.0,036.4,029.4,16.2,0000.0,0007.86,0001.88,0001.08
2023-09-07 16:04:00,SystemResetWarning,0832.7,5.00,000.00,028.0,025.4,000.0,036.4,029.4,15.6,0000.0,0007.82,0001.86,0001.09
2023-09-07 16:05:00,SystemResetWarning,0832.7,5.00,000.00,028.0,025.8,000.0,036.4,029.5,14.3,0000.0,0007.66,0001.81,0001.09
2023-09-07 16:06:00,SystemResetWarning,0832.7,5.00,000.00,028.1,026.1,000.0,036.4,029.6,14.7,0000.0,0007.84,0001.76,0001.08
2023-09-07 16:07:00,SystemResetWarning,0832.6,5.00,000.00,028.1,026.4,000.0,036.4,029.7,14.7,0000.0,0007.56,0001.73,0001.08
2023-09-07 16:08:00,SystemResetWarning,0832.7,5.00,000.00,028.1,026.6,000.0,036.4,029.8,13.2,0000.0,0007.47,0001.66,0001.03
2023-09-07 16:09:00,SystemResetWarning,0832.7,5.00,000.00,028.2,026.8,000.0,036.5,029.8,13.1,0000.0,0007.01,0001.64,0001.03
2023-09-07 16:10:00,SystemResetWarning,0832.7,5.00,000.00,028.2,027.0,000.0,036.5,029.9,13.3,0000.0,0007.42,0001.61,0001.04
2023-09-07 16:11:00,SystemResetWarning,0832.7,4.99,000.00,028.3,027.2,000.0,036.5,030.0,13.3,0000.0,0006.86,0001.58,0001.05
2023-09-07 16:12:00,SystemResetWarning,0832.7,4.98,000.00,028.3,026.4,000.0,036.5,029.7,13.9,0000.0,0006.32,0001.59,0001.06
2023-09-07 16:13:00,SystemResetWarning,0832.7,5.00,000.00,028.2,025.1,000.0,036.4,029.4,13.9,0000.0,0006.11,0001.57,0001.06
2023-09-07 16:14:00,SystemResetWarning,0832.7,5.01,000.00,028.1,025.0,000.0,036.4,029.4,13.1,0000.0,0006.22,0001.58,0001.08
2023-09-07 16:15:00,SystemResetWarning,0832.8,5.00,000.00,028.1,025.3,000.0,036.4,029.4,12.6,0000.0,0006.33,0001.55,0001.09
2023-09-07 16:16:00,SystemResetWarning,0833.0,5.00,000.00,028.1,025.6,000.0,036.4,029.5,12.6,0000.0,0006.51,0001.59,0001.09
2023-09-07 16:17:00,SystemResetWarning,0832.9,5.00,000.00,028.1,026.0,000.0,036.4,029.6,12.7,0000.0,0005.94,0001.64,0001.09
2023-09-07 16:18:00,SystemResetWarning,0833.4,5.00,000.00,028.1,026.3,000.0,036.4,029.7,12.6,0000.0,0005.76,0001.64,0001.08
2023-09-07 16:19:00,SystemResetWarning,0833.0,4.99,000.00,028.1,026.5,000.0,036.4,029.7,12.4,0000.0,0007.07,0001.68,0001.08
2023-09-07 16:20:00,SystemResetWarning,0833.2,4.99,000.00,028.2,026.8,000.0,036.5,029.8,12.6,0000.0,0006.93,0001.64,0001.07
2023-09-07 16:21:00,SystemResetWarning,0833.0,4.99,000.00,028.2,026.8,000.0,036.5,029.8,12.5,0000.0,0006.43,0001.81,0001.15
2023-09-07 16:22:00,SystemResetWarning,0833.0,5.00,000.00,028.2,025.6,000.0,036.4,029.5,13.0,0000.0,0007.28,0002.01,0001.26
2023-09-07 16:23:00,SystemResetWarning,0833.0,5.00,000.00,028.1,024.8,000.0,036.4,029.3,12.9,0000.0,0007.82,0002.10,0001.32
2023-09-07 16:24:00,SystemResetWarning,0832.8,5.01,000.00,028.0,025.1,000.0,036.3,029.4,15.5,0000.0,0008.35,0002.12,0001.33
2023-09-07 16:25:00,SystemResetWarning,0832.8,5.01,000.00,028.0,025.4,000.0,036.3,029.4,19.3,0000.0,0008.06,0002.16,0001.31
2023-09-07 16:26:00,SystemResetWarning,0832.8,4.99,000.00,028.0,025.7,000.0,036.3,029.5,21.8,0000.0,0007.96,0002.22,0001.31
2023-09-07 16:27:00,SystemResetWarning,0832.8,5.00,000.00,028.0,026.1,000.0,036.3,029.6,23.5,0000.0,0008.36,0002.27,0001.34
2023-09-07 16:28:00,SystemResetWarning,0832.8,5.00,000.00,028.1,026.4,000.0,036.4,029.7,21.3,0000.0,0008.41,0002.28,0001.37
2023-09-07 16:29:00,SystemResetWarning,0832.7,5.00,000.00,028.1,026.7,000.0,036.4,029.8,16.4,0000.0,0008.68,0002.49,0001.50
2023-09-07 16:30:00,SystemResetWarning,0833.3,4.99,000.00,028.1,026.9,000.0,036.4,029.8,13.4,0000.0,0008.40,0002.63,0001.63
2023-09-07 16:31:00,SystemResetWarning,0832.9,5.00,000.00,028.2,027.0,000.0,036.4,029.9,13.1,0000.0,0009.72,0002.87,0001.82
2023-09-07 16:32:00,SystemResetWarning,0832.7,4.99,000.00,028.2,025.8,000.0,036.4,029.6,13.2,0000.0,0010.16,0002.87,0001.86
2023-09-07 16:33:00,SystemResetWarning,0832.8,5.00,000.00,028.1,024.8,000.0,036.3,029.3,12.9,0000.0,0010.65,0002.75,0001.79
2023-09-07 16:34:00,SystemResetWarning,0832.8,5.00,000.00,028.0,025.0,000.0,036.3,029.4,12.6,0000.0,0010.61,0002.74,0001.79
2023-09-07 16:35:00,SystemResetWarning,0832.8,5.01,000.00,028.0,025.3,000.0,036.3,029.4,12.4,0000.0,0009.77,0002.76,0001.82
2023-09-07 16:36:00,SystemResetWarning,0832.8,5.00,000.00,028.0,025.6,000.0,036.3,029.5,12.8,0000.0,0009.87,0002.87,0001.91
2023-09-07 16:37:00,SystemResetWarning,0832.9,5.00,000.00,028.0,026.0,000.0,036.3,029.6,12.6,0000.0,0009.85,0002.94,0002.01
2023-09-07 16:38:00,SystemResetWarning,0833.0,5.00,000.00,028.0,026.3,000.0,036.3,029.7,14.3,0002.1,0010.11,0003.02,0002.12
2023-09-07 16:39:00,SystemResetWarning,0833.0,5.00,000.00,028.1,026.6,000.0,036.3,029.7,14.1,0002.4,0010.27,0003.14,0002.21
2023-09-07 16:40:00,SystemResetWarning,0833.3,4.99,000.00,028.1,026.7,000.0,036.3,029.8,12.8,0002.6,0010.58,0003.16,0002.20
2023-09-07 16:41:00,SystemResetWarning,0833.0,4.99,000.00,028.1,025.7,000.0,036.3,029.5,12.7,0002.4,0010.50,0003.10,0002.13
2023-09-07 16:42:00,SystemResetWarning,0832.8,5.01,000.00,028.0,024.7,000.0,036.3,029.2,12.2,0000.8,0009.19,0002.92,0001.97
2023-09-07 16:43:00,SystemResetWarning,0832.8,5.01,000.00,028.0,024.9,000.0,036.2,029.3,12.8,0000.0,0008.37,0002.79,0001.86
2023-09-07 16:44:00,SystemResetWarning,0832.9,4.99,000.00,027.9,025.2,000.0,036.2,029.3,12.9,0000.0,0007.67,0002.71,0001.79
2023-09-07 16:45:00,SystemResetWarning,0832.9,5.00,000.00,027.9,025.6,000.0,036.2,029.4,12.9,0000.0,0006.95,0002.63,0001.74
2023-09-07 16:46:00,SystemResetWarning,0833.0,5.00,000.00,027.9,025.9,000.0,036.2,029.5,12.6,0000.0,0007.38,0002.61,0001.70
2023-09-07 16:47:00,SystemResetWarning,0833.1,5.00,000.00,028.0,026.2,000.0,036.3,029.6,12.3,0000.0,0007.32,0002.52,0001.63
2023-09-07 16:48:00,SystemResetWarning,0833.0,5.00,000.00,028.0,026.5,000.0,036.3,029.7,12.2,0000.0,0007.33,0002.47,0001.53
2023-09-07 16:49:00,SystemResetWarning,0832.9,5.00,000.00,028.1,026.8,000.0,036.3,029.8,11.8,0000.0,0006.15,0002.32,0001.42
2023-09-07 16:50:00,SystemResetWarning,0833.0,4.99,000.00,028.1,026.6,000.0,036.3,029.7,12.3,0000.0,0005.42,0002.13,0001.32
2023-09-07 16:51:00,SystemResetWarning,0832.9,4.98,000.00,028.0,025.3,000.0,036.3,029.3,12.6,0000.0,0004.80,0001.98,0001.23
2023-09-07 16:52:00,SystemResetWarning,0833.1,5.01,000.00,027.9,024.8,000.0,036.2,029.2,13.8,0000.0,0004.35,0001.90,0001.19
2023-09-07 16:53:00,SystemResetWarning,0832.9,5.00,000.00,027.9,025.1,000.0,036.2,029.4,14.8,0000.0,0004.36,0001.85,0001.14
2023-09-07 16:54:00,SystemResetWarning,0833.0,4.99,000.00,027.9,025.4,000.0,036.2,029.4,15.8,0000.0,0005.77,0001.82,0001.10
2023-09-07 16:55:00,SystemResetWarning,0833.1,5.01,000.00,027.9,025.8,000.0,036.2,029.4,12.9,0000.0,0006.89,0001.77,0001.09
2023-09-07 16:56:00,SystemResetWarning,0833.2,5.00,000.00,027.9,026.1,000.0,036.2,029.5,18.1,0000.0,0007.13,0001.72,0001.09
2023-09-07 16:57:00,SystemResetWarning,0833.2,5.00,000.00,028.0,026.4,000.0,036.2,029.6,20.3,0000.0,0006.93,0001.67,0001.08
2023-09-07 16:58:00,SystemResetWarning,0833.2,5.00,000.00,028.1,026.7,000.0,036.3,029.7,23.1,0000.0,0007.87,0001.65,0001.07
2023-09-07 16:59:00,SystemResetWarning,0833.2,4.99,000.00,028.1,026.6,000.0,036.3,029.7,23.5,0000.0,0008.34,0001.58,0001.05
